| time (UTC) | temp F | wind direction | speed MPH | gust MPH | rain 1hr in | rain 24hr in | rain mn in | humidity % | barometer mb |
| 20260506061521 | 62 | 0.0 | 0.0 | 0.00 | 0.00 | 0.00 | 66 | 1015.0 | |
| 20260506060521 | 62 | 0.0 | 0.0 | 0.00 | 0.00 | 0.00 | 64 | 1014.7 | |
| 20260506050521 | 64 | 0.0 | 1.0 | 0.00 | 0.00 | 0.00 | 61 | 1014.4 | |
| 20260506044521 | 64 | 0.0 | 1.0 | 0.00 | 0.00 | 0.00 | 61 | 1015.2 | |
| 20260506043521 | 64 | 0.0 | 1.0 | 0.00 | 0.00 | 0.00 | 60 | 1015.3 | |
| 20260506042521 | 64 | 0.0 | 0.0 | 0.00 | 0.00 | 0.00 | 61 | 1015.2 | |
| 20260506041546 | 63 | 0.0 | 1.0 | 0.00 | 0.00 | 0.00 | 63 | 1014.9 | |
| 20260506040520 | 62 | 0.0 | 1.0 | 0.00 | 0.00 | 0.00 | 64 | 1014.7 | |
| 20260506035546 | 62 | 0.0 | 1.0 | 0.00 | 0.00 | 0.00 | 64 | 1014.8 | |
| 20260506034521 | 62 | 135 | 1.0 | 1.0 | 0.00 | 0.00 | 0.00 | 64 | 1014.9 |
| 20260506033521 | 62 | 135 | 1.0 | 2.0 | 0.00 | 0.00 | 0.00 | 64 | 1014.7 |
| 20260506032521 | 63 | 0.0 | 1.0 | 0.00 | 0.00 | 0.00 | 63 | 1014.8 | |
| 20260506031521 | 63 | 0.0 | 1.0 | 0.00 | 0.00 | 0.00 | 62 | 1014.8 | |
| 20260506030521 | 63 | 90 | 1.0 | 2.0 | 0.00 | 0.00 | 0.00 | 62 | 1014.9 |
| 20260506025546 | 63 | 0.0 | 1.0 | 0.00 | 0.00 | 0.00 | 60 | 1015.3 | |
| 20260506024521 | 64 | 0.0 | 2.0 | 0.00 | 0.00 | 0.00 | 58 | 1015.2 | |
| 20260506023521 | 64 | 0.0 | 1.0 | 0.00 | 0.00 | 0.00 | 59 | 1014.8 | |
| 20260506022521 | 64 | 0.0 | 1.0 | 0.00 | 0.00 | 0.00 | 58 | 1014.6 | |
| 20260506021521 | 64 | 0.0 | 1.0 | 0.00 | 0.00 | 0.00 | 57 | 1014.3 | |
| 20260506020521 | 65 | 0.0 | 3.0 | 0.00 | 0.00 | 0.00 | 56 | 1014.2 | |
| 20260506015546 | 65 | 0.0 | 1.0 | 0.00 | 0.00 | 0.00 | 55 | 1014.2 | |
| 20260506014520 | 66 | 0.0 | 1.0 | 0.00 | 0.00 | 0.00 | 54 | 1014.2 | |
| 20260506013521 | 66 | 0.0 | 1.0 | 0.00 | 0.00 | 0.00 | 54 | 1013.8 | |
| 20260506012546 | 66 | 113 | 1.0 | 3.0 | 0.00 | 0.00 | 0.00 | 55 | 1014.1 |
| 20260506011521 | 66 | 0.0 | 1.0 | 0.00 | 0.00 | 0.00 | 53 | 1013.9 | |
| 20260506010546 | 66 | 0.0 | 1.0 | 0.00 | 0.00 | 0.00 | 53 | 1013.7 | |
| 20260506005521 | 67 | 0.0 | 1.0 | 0.00 | 0.00 | 0.00 | 52 | 1013.7 | |
| 20260506004521 | 68 | 0.0 | 1.0 | 0.00 | 0.00 | 0.00 | 52 | 1013.7 | |
| 20260506003521 | 68 | 0.0 | 1.0 | 0.00 | 0.00 | 0.00 | 50 | 1013.5 | |
| 20260506002520 | 69 | 0.0 | 2.0 | 0.00 | 0.00 | 0.00 | 48 | 1013.5 | |
| 20260506001520 | 69 | 0.0 | 1.0 | 0.00 | 0.00 | 0.00 | 47 | 1013.5 | |
| 20260506000520 | 69 | 0.0 | 2.0 | 0.00 | 0.00 | 0.00 | 47 | 1013.3 | |
| 20260505235521 | 69 | 0.0 | 2.0 | 0.00 | 0.00 | 0.00 | 46 | 1013.6 | |
| 20260505234520 | 69 | 0.0 | 2.0 | 0.00 | 0.00 | 0.00 | 45 | 1013.4 | |
| 20260505233546 | 70 | 158 | 1.0 | 5.0 | 0.00 | 0.00 | 0.00 | 45 | 1013.4 |
| 20260505232521 | 70 | 135 | 1.0 | 3.0 | 0.00 | 0.00 | 0.00 | 45 | 1013.5 |
| 20260505231546 | 70 | 0.0 | 2.0 | 0.00 | 0.00 | 0.00 | 46 | 1013.4 | |
| 20260505230520 | 71 | 135 | 1.0 | 3.0 | 0.00 | 0.00 | 0.00 | 45 | 1013.4 |
| 20260505225520 | 71 | 90 | 1.0 | 2.0 | 0.00 | 0.00 | 0.00 | 44 | 1013.5 |
| 20260505224521 | 71 | 0.0 | 2.0 | 0.00 | 0.00 | 0.00 | 43 | 1013.5 | |
| 20260505223520 | 71 | 135 | 2.0 | 4.0 | 0.00 | 0.00 | 0.00 | 42 | 1013.5 |
| 20260505222521 | 72 | 135 | 1.0 | 3.0 | 0.00 | 0.00 | 0.00 | 43 | 1013.4 |
| 20260505221520 | 72 | 135 | 2.0 | 5.0 | 0.00 | 0.00 | 0.00 | 42 | 1013.3 |
| 20260505220520 | 72 | 113 | 1.0 | 3.0 | 0.00 | 0.00 | 0.00 | 42 | 1013.5 |
| 20260505215520 | 72 | 0 | 2.0 | 5.0 | 0.00 | 0.00 | 0.00 | 43 | 1013.3 |
| 20260505214520 | 73 | 0.0 | 2.0 | 0.00 | 0.00 | 0.00 | 42 | 1013.4 | |
| 20260505213546 | 74 | 135 | 1.0 | 4.0 | 0.00 | 0.00 | 0.00 | 43 | 1013.7 |
| 20260505212520 | 74 | 23 | 1.0 | 5.0 | 0.00 | 0.00 | 0.00 | 41 | 1013.6 |
| 20260505211520 | 74 | 158 | 1.0 | 2.0 | 0.00 | 0.00 | 0.00 | 42 | 1013.7 |
| 20260505210545 | 74 | 0.0 | 3.0 | 0.00 | 0.00 | 0.00 | 41 | 1013.9 | |
| 20260505205520 | 74 | 135 | 1.0 | 3.0 | 0.00 | 0.00 | 0.00 | 42 | 1014.1 |
| 20260505204520 | 73 | 158 | 1.0 | 5.0 | 0.00 | 0.00 | 0.00 | 44 | 1013.9 |
| 20260505203547 | 72 | 225 | 1.0 | 4.0 | 0.00 | 0.00 | 0.00 | 44 | 1014.0 |
| 20260505202548 | 72 | 135 | 1.0 | 5.0 | 0.00 | 0.00 | 0.00 | 43 | 1013.8 |
| 20260505201522 | 72 | 113 | 2.0 | 6.0 | 0.00 | 0.00 | 0.00 | 41 | 1013.9 |
| 20260505200546 | 72 | 135 | 1.0 | 3.0 | 0.00 | 0.00 | 0.00 | 41 | 1014.0 |
| 20260505195522 | 73 | 113 | 1.0 | 7.0 | 0.00 | 0.00 | 0.00 | 40 | 1014.0 |
| 20260505194522 | 73 | 203 | 2.0 | 5.0 | 0.00 | 0.00 | 0.00 | 41 | 1014.2 |
| 20260505193522 | 74 | 113 | 2.0 | 4.0 | 0.00 | 0.00 | 0.00 | 40 | 1014.2 |
| 20260505192522 | 74 | 135 | 1.0 | 5.0 | 0.00 | 0.00 | 0.00 | 40 | 1014.3 |
| 20260505191522 | 75 | 180 | 1.0 | 3.0 | 0.00 | 0.00 | 0.00 | 41 | 1014.6 |
| 20260505190522 | 74 | 248 | 1.0 | 5.0 | 0.00 | 0.00 | 0.00 | 42 | 1014.8 |
| 20260505185522 | 75 | 113 | 2.0 | 6.0 | 0.00 | 0.00 | 0.00 | 42 | 1014.9 |
| 20260505184522 | 76 | 113 | 2.0 | 4.0 | 0.00 | 0.00 | 0.00 | 40 | 1015.1 |
| 20260505183612 | 77 | 0.0 | 5.0 | 0.00 | 0.00 | 0.00 | 39 | 1015.3 | |
| 20260505182522 | 78 | 0.0 | 2.0 | 0.00 | 0.00 | 0.00 | 38 | 1015.4 | |
| 20260505181522 | 80 | 0.0 | 1.0 | 0.00 | 0.00 | 0.00 | 35 | 1015.6 | |
| 20260505180547 | 79 | 113 | 1.0 | 3.0 | 0.00 | 0.00 | 0.00 | 36 | 1015.8 |
| 20260505175522 | 80 | 135 | 1.0 | 3.0 | 0.00 | 0.00 | 0.00 | 34 | 1016.3 |
| 20260505174522 | 79 | 135 | 1.0 | 2.0 | 0.00 | 0.00 | 0.00 | 35 | 1016.1 |
| 20260505173522 | 79 | 203 | 1.0 | 4.0 | 0.00 | 0.00 | 0.00 | 36 | 1016.7 |
| 20260505172547 | 78 | 135 | 1.0 | 3.0 | 0.00 | 0.00 | 0.00 | 37 | 1016.8 |
| 20260505171522 | 78 | 90 | 1.0 | 3.0 | 0.00 | 0.00 | 0.00 | 37 | 1016.9 |
| 20260505170522 | 75 | 135 | 1.0 | 2.0 | 0.00 | 0.00 | 0.00 | 40 | 1016.6 |
| 20260505165522 | 74 | 135 | 2.0 | 4.0 | 0.00 | 0.00 | 0.00 | 40 | 1016.6 |
| 20260505164522 | 75 | 113 | 2.0 | 4.0 | 0.00 | 0.00 | 0.00 | 40 | 1016.7 |
| 20260505163522 | 74 | 0.0 | 1.0 | 0.00 | 0.00 | 0.00 | 44 | 1016.7 | |
| 20260505162522 | 74 | 23 | 1.0 | 2.0 | 0.00 | 0.00 | 0.00 | 41 | 1016.7 |
| 20260505161522 | 75 | 0 | 1.0 | 3.0 | 0.00 | 0.00 | 0.00 | 42 | 1017.0 |
| 20260505160522 | 74 | 0.0 | 1.0 | 0.00 | 0.00 | 0.00 | 43 | 1017.1 | |
| 20260505152522 | 69 | 113 | 1.0 | 3.0 | 0.00 | 0.00 | 0.00 | 48 | 1017.7 |
| 20260505151522 | 68 | 0.0 | 2.0 | 0.00 | 0.00 | 0.00 | 48 | 1017.7 | |
| 20260505150522 | 68 | 0.0 | 1.0 | 0.00 | 0.00 | 0.00 | 50 | 1017.8 | |
| 20260505140521 | 59 | 0.0 | 1.0 | 0.00 | 0.00 | 0.00 | 71 | 1017.0 | |
| 20260505124521 | 49 | 0.0 | 0.0 | 0.00 | 0.00 | 0.00 | 90 | 1016.6 | |
| 20260505123521 | 48 | 0.0 | 0.0 | 0.00 | 0.00 | 0.00 | 89 | 1016.6 | |
| 20260505122547 | 47 | 0.0 | 0.0 | 0.00 | 0.00 | 0.00 | 89 | 1016.8 | |
| 20260505121546 | 47 | 0.0 | 0.0 | 0.00 | 0.00 | 0.00 | 90 | 1016.9 | |
| 20260505120546 | 46 | 0.0 | 0.0 | 0.00 | 0.00 | 0.00 | 90 | 1016.8 | |
| 20260505115521 | 45 | 0.0 | 0.0 | 0.00 | 0.00 | 0.00 | 90 | 1016.3 | |
| 20260505114521 | 45 | 0.0 | 0.0 | 0.00 | 0.00 | 0.00 | 90 | 1016.2 | |
| 20260505113521 | 45 | 0.0 | 0.0 | 0.00 | 0.00 | 0.00 | 90 | 1016.3 | |
| 20260505112521 | 45 | 0.0 | 0.0 | 0.00 | 0.00 | 0.00 | 90 | 1016.2 | |
| 20260505111521 | 45 | 0.0 | 0.0 | 0.00 | 0.00 | 0.00 | 90 | 1015.8 | |
| 20260505110522 | 45 | 0.0 | 0.0 | 0.00 | 0.00 | 0.00 | 90 | 1015.8 | |
| 20260505101521 | 45 | 0.0 | 0.0 | 0.00 | 0.00 | 0.00 | 89 | 1016.1 | |
| 20260505100521 | 46 | 0.0 | 0.0 | 0.00 | 0.00 | 0.00 | 89 | 1016.3 | |
| 20260505095521 | 46 | 0.0 | 0.0 | 0.00 | 0.00 | 0.00 | 88 | 1016.2 | |
| 20260505094521 | 46 | 0.0 | 0.0 | 0.00 | 0.00 | 0.00 | 88 | 1016.1 | |
| 20260505093521 | 46 | 0.0 | 0.0 | 0.00 | 0.00 | 0.00 | 88 | 1016.2 | |
| 20260505092521 | 47 | 0.0 | 0.0 | 0.00 | 0.00 | 0.00 | 87 | 1016.1 | |
| 20260505091521 | 47 | 0.0 | 0.0 | 0.00 | 0.00 | 0.00 | 87 | 1016.0 | |
| 20260505090521 | 48 | 0.0 | 0.0 | 0.00 | 0.00 | 0.00 | 86 | 1016.4 | |
| 20260505085611 | 48 | 0.0 | 0.0 | 0.00 | 0.00 | 0.00 | 86 | 1016.2 | |
| 20260505084521 | 48 | 0.0 | 0.0 | 0.00 | 0.00 | 0.00 | 85 | 1016.2 | |
| 20260505083546 | 49 | 0.0 | 0.0 | 0.00 | 0.00 | 0.00 | 85 | 1016.3 | |
| 20260505082611 | 49 | 0.0 | 0.0 | 0.00 | 0.00 | 0.00 | 85 | 1016.4 | |
| 20260505081521 | 49 | 0.0 | 0.0 | 0.00 | 0.00 | 0.00 | 84 | 1016.3 | |
| 20260505080521 | 50 | 0.0 | 0.0 | 0.00 | 0.00 | 0.00 | 84 | 1016.3 | |
| 20260505075521 | 50 | 0.0 | 0.0 | 0.00 | 0.00 | 0.00 | 84 | 1016.4 | |
| 20260505074521 | 50 | 0.0 | 0.0 | 0.00 | 0.00 | 0.00 | 84 | 1016.1 | |
| 20260505073521 | 50 | 0.0 | 0.0 | 0.00 | 0.00 | 0.00 | 82 | 1016.2 | |
| 20260505072521 | 51 | 0.0 | 0.0 | 0.00 | 0.00 | 0.00 | 82 | 1016.2 | |
| 20260505071521 | 51 | 0.0 | 0.0 | 0.00 | 0.00 | 0.00 | 81 | 1016.2 | |
| 20260505070521 | 51 | 0.0 | 0.0 | 0.00 | 0.00 | 0.00 | 80 | 1016.1 |